User: anonymous   Login
Location: Unspecified
(0.0000°N, 0.0000°E)
Time: 16:51:21
(UTC+02:00)
Language:

ISS - Orbit

View from above orbital plane
View from above orbital plane
View from above satellite
View from above satellite

Ground track
Ground track

The orbit data is extracted from the following two-line orbital elements,

1 25544U 98067A   15122.99710686  .00011900  00000-0  17242-3 0  9997
2 25544 051.6472 309.7359 0005154 290.3706 205.3657 15.56317731941006
Epoch (UTC): 02 May 2015 23:55:50
Eccentricity: 0.0005154
inclination: 51.6472°
perigee height: 395 km
apogee height: 402 km
right ascension of ascending node: 309.7359°
argument of perigee: 290.3706°
revolutions per day: 15.56317731
mean anomaly at epoch: 205.3657°
orbit number at epoch: 94100

The dashed part of the orbit path shows where the satellite is in the earth's shadow,  

DLR